QPF
0.19 0.25 0.25 0.23 0.20 0.16 0.13 0.12 0.10 0.07 0.03 0.01 0.00 0.00 0.00 0.00 0.00 0.00 0.00 0.00 0.00 0.00 0.00 0.00 0.00 0.00 0.00 0.00 0.00 0.00 0.00 0.00 0.00 0.00 0.00 0.00 0.00 0.00
0.10 0.15 0.18 0.19 0.19 0.18 0.15 0.12 0.11 0.09 0.06 0.03 0.03 0.03 0.03 0.01 0.00 0.00 0.00 0.00 0.00 0.00 0.00 0.00 0.00 0.00 0.00 0.00 0.00 0.00 0.00 0.00 0.00 0.00 0.00 0.00 0.00 0.00
0.03 0.05 0.10 0.16 0.18 0.18 0.17 0.13 0.11 0.10 0.07 0.05 0.04 0.05 0.05 0.03 0.02 0.01 0.00 0.00 0.00 0.00 0.00 0.00 0.00 0.00 0.00 0.00 0.00 0.00 0.00 0.00 0.00 0.00 0.00 0.00 0.00 0.00
0.00 0.01 0.03 0.08 0.11 0.15 0.16 0.14 0.12 0.11 0.11 0.09 0.06 0.05 0.05 0.05 0.03 0.02 0.01 0.00 0.00 0.00 0.00 0.00 0.00 0.00 0.00 0.00 0.00 0.00 0.00 0.00 0.00 0.00 0.00 0.00 0.00 0.00
0.00 0.00 0.00 0.02 0.04 0.06 0.10 0.13 0.15 0.15 0.13 0.12 0.10 0.08 0.06 0.05 0.03 0.02 0.01 0.00 0.00 0.00 0.00 0.00 0.00 0.00 0.00 0.00 0.00 0.00 0.00 0.00 0.00 0.00 0.00 0.00 0.00 0.00
0.00 0.00 0.00 0.00 0.01 0.02 0.06 0.09 0.13 0.17 0.17 0.16 0.12 0.10 0.07 0.05 0.04 0.03 0.02 0.01 0.00 0.00 0.00 0.00 0.00 0.00 0.00 0.00 0.00 0.00 0.00 0.00 0.00 0.00 0.00 0.00 0.00 0.00
0.00 0.00 0.00 0.00 0.00 0.01 0.02 0.05 0.10 0.16 0.20 0.21 0.19 0.16 0.12 0.07 0.05 0.04 0.03 0.02 0.01 0.00 0.00 0.00 0.00 0.00 0.00 0.00 0.00 0.00 0.00 0.00 0.00 0.00 0.00 0.00 0.00 0.00
0.00 0.00 0.00 0.00 0.01 0.02 0.03 0.03 0.05 0.09 0.15 0.18 0.17 0.16 0.16 0.12 0.08 0.05 0.02 0.01 0.00 0.01 0.00 0.00 0.00 0.00 0.00 0.00 0.00 0.00 0.00 0.00 0.00 0.00 0.00 0.00 0.00 0.00
0.00 0.00 0.00 0.00 0.00 0.00 0.01 0.02 0.03 0.06 0.10 0.14 0.17 0.17 0.16 0.14 0.11 0.07 0.03 0.01 0.01 0.01 0.01 0.00 0.00 0.00 0.00 0.00 0.00 0.00 0.00 0.00 0.00 0.00 0.00 0.00 0.00 0.00
0.01 0.00 0.00 0.00 0.00 0.00 0.00 0.00 0.01 0.02 0.04 0.06 0.09 0.15 0.20 0.21 0.18 0.12 0.08 0.04 0.02 0.01 0.00 0.00 0.00 0.00 0.00 0.00 0.00 0.00 0.00 0.00 0.00 0.00 0.00 0.00 0.00 0.00
0.03 0.01 0.01 0.01 0.01 0.01 0.00 0.00 0.00 0.01 0.01 0.03 0.06 0.11 0.16 0.18 0.19 0.16 0.12 0.08 0.05 0.03 0.02 0.01 0.00 0.00 0.00 0.00 0.00 0.00 0.00 0.00 0.00 0.00 0.00 0.00 0.00 0.00
0.05 0.03 0.02 0.02 0.01 0.01 0.00 0.00 0.00 0.01 0.01 0.02 0.04 0.07 0.10 0.13 0.15 0.14 0.13 0.13 0.10 0.07 0.05 0.03 0.01 0.01 0.01 0.00 0.00 0.00 0.00 0.00 0.00 0.00 0.00 0.00 0.00 0.00
0.03 0.02 0.03 0.02 0.01 0.01 0.01 0.00 0.01 0.02 0.02 0.02 0.02 0.03 0.04 0.05 0.06 0.09 0.10 0.11 0.13 0.13 0.11 0.09 0.05 0.04 0.03 0.01 0.01 0.01 0.00 0.00 0.00 0.00 0.00 0.00 0.00 0.00
0.02 0.02 0.02 0.02 0.01 0.01 0.01 0.02 0.03 0.03 0.02 0.02 0.01 0.01 0.01 0.01 0.01 0.03 0.04 0.05 0.05 0.07 0.08 0.08 0.08 0.07 0.06 0.05 0.03 0.02 0.02 0.01 0.00 0.00 0.00 0.00 0.00 0.00
0.01 0.01 0.02 0.02 0.01 0.01 0.02 0.04 0.05 0.04 0.04 0.03 0.02 0.01 0.00 0.00 0.00 0.00 0.00 0.00 0.01 0.01 0.02 0.03 0.05 0.05 0.06 0.05 0.04 0.02 0.02 0.01 0.01 0.01 0.00 0.00 0.00 0.00
0.01 0.02 0.03 0.03 0.02 0.02 0.03 0.04 0.05 0.05 0.05 0.03 0.01 0.01 0.00 0.00 0.00 0.00 0.00 0.00 0.00 0.00 0.00 0.01 0.02 0.02 0.03 0.04 0.04 0.04 0.04 0.04 0.03 0.03 0.03 0.03 0.02 0.01
0.02 0.03 0.04 0.04 0.04 0.02 0.02 0.02 0.03 0.04 0.03 0.02 0.01 0.01 0.00 0.00 0.00 0.00 0.00 0.00 0.00 0.00 0.00 0.00 0.00 0.01 0.01 0.01 0.02 0.03 0.04 0.05 0.05 0.06 0.07 0.06 0.05 0.04
0.05 0.05 0.06 0.05 0.04 0.03 0.01 0.01 0.02 0.03 0.03 0.02 0.01 0.01 0.00 0.00 0.00 0.00 0.00 0.00 0.00 0.00 0.00 0.00 0.00 0.00 0.00 0.00 0.00 0.00 0.01 0.02 0.03 0.05 0.06 0.06 0.06 0.06
0.10 0.08 0.09 0.08 0.06 0.05 0.04 0.02 0.02 0.02 0.02 0.01 0.01 0.00 0.00 0.00 0.00 0.00 0.00 0.00 0.00 0.00 0.00 0.00 0.00 0.00 0.00 0.00 0.00 0.00 0.00 0.00 0.01 0.02 0.03 0.04 0.04 0.06
0.10 0.09 0.10 0.11 0.10 0.07 0.08 0.07 0.03 0.02 0.02 0.02 0.01 0.01 0.00 0.00 0.00 0.00 0.00 0.00 0.00 0.00 0.00 0.00 0.00 0.00 0.00 0.01 0.00 0.00 0.00 0.00 0.01 0.01 0.02 0.03 0.03 0.05
0.13 0.11 0.08 0.07 0.09 0.06 0.05 0.04 0.02 0.02 0.02 0.02 0.01 0.01 0.00 0.00 0.00 0.00 0.00 0.00 0.00 0.00 0.00 0.00 0.00 0.01 0.01 0.01 0.01 0.00 0.00 0.01 0.01 0.02 0.02 0.03 0.03 0.03
0.04 0.05 0.03 0.02 0.03 0.02 0.01 0.00 0.00 0.00 0.00 0.00 0.00 0.00 0.00 0.00 0.00 0.00 0.01 0.01 0.01 0.01 0.01 0.01 0.02 0.02 0.03 0.03 0.02 0.01 0.01 0.00 0.01 0.02 0.03 0.03 0.03 0.03
0.00 0.00 0.00 0.00 0.00 0.00 0.00 0.00 0.00 0.00 0.00 0.00 0.00 0.00 0.00 0.00 0.00 0.00 0.01 0.01 0.01 0.02 0.02 0.02 0.03 0.03 0.03 0.03 0.02 0.01 0.01 0.01 0.01 0.01 0.02 0.04 0.05 0.04
MSLP
1014.63 1014.87 1015.13 1015.43 1015.75 1016.09 1016.43 1016.74 1017.03 1017.26 1017.43 1017.53 1017.59 1017.61 1017.62 1017.64 1017.69 1017.78 1017.93 1018.10 1018.29 1018.47 1018.63 1018.74 1018.81 1018.83 1018.82 1018.80 1018.79 1018.80 1018.83 1018.88 1018.92 1018.93 1018.88 1018.75 1018.52 1018.20
1014.43 1014.61 1014.82 1015.04 1015.28 1015.55 1015.83 1016.11 1016.38 1016.62 1016.83 1016.98 1017.10 1017.18 1017.24 1017.31 1017.40 1017.52 1017.69 1017.89 1018.12 1018.34 1018.54 1018.69 1018.80 1018.84 1018.85 1018.82 1018.80 1018.79 1018.81 1018.85 1018.91 1018.96 1018.97 1018.91 1018.77 1018.52
1014.33 1014.47 1014.62 1014.77 1014.93 1015.11 1015.32 1015.55 1015.79 1016.03 1016.26 1016.47 1016.64 1016.78 1016.89 1017.01 1017.13 1017.28 1017.46 1017.68 1017.92 1018.16 1018.39 1018.57 1018.70 1018.76 1018.77 1018.75 1018.71 1018.68 1018.68 1018.71 1018.78 1018.86 1018.93 1018.96 1018.91 1018.76
1014.29 1014.41 1014.51 1014.60 1014.68 1014.78 1014.92 1015.09 1015.30 1015.54 1015.78 1016.02 1016.24 1016.43 1016.59 1016.74 1016.88 1017.04 1017.23 1017.45 1017.69 1017.93 1018.16 1018.36 1018.50 1018.57 1018.59 1018.56 1018.51 1018.46 1018.44 1018.47 1018.54 1018.64 1018.76 1018.85 1018.90 1018.86
1014.24 1014.37 1014.45 1014.49 1014.52 1014.55 1014.63 1014.75 1014.92 1015.14 1015.39 1015.65 1015.90 1016.12 1016.32 1016.49 1016.65 1016.81 1016.99 1017.19 1017.41 1017.64 1017.86 1018.04 1018.18 1018.27 1018.29 1018.26 1018.20 1018.14 1018.11 1018.13 1018.20 1018.31 1018.46 1018.61 1018.73 1018.79
1014.15 1014.29 1014.37 1014.39 1014.38 1014.38 1014.40 1014.48 1014.62 1014.81 1015.06 1015.32 1015.59 1015.84 1016.06 1016.25 1016.41 1016.56 1016.71 1016.88 1017.07 1017.26 1017.46 1017.63 1017.76 1017.84 1017.87 1017.85 1017.79 1017.74 1017.71 1017.72 1017.78 1017.91 1018.08 1018.26 1018.44 1018.58
1013.98 1014.15 1014.23 1014.26 1014.23 1014.20 1014.19 1014.23 1014.34 1014.51 1014.74 1015.00 1015.28 1015.54 1015.76 1015.96 1016.12 1016.25 1016.38 1016.52 1016.66 1016.82 1016.98 1017.13 1017.25 1017.33 1017.36 1017.35 1017.32 1017.28 1017.25 1017.27 1017.34 1017.47 1017.65 1017.87 1018.08 1018.27
1013.71 1013.91 1014.02 1014.05 1014.02 1013.98 1013.95 1013.97 1014.05 1014.20 1014.41 1014.66 1014.93 1015.18 1015.42 1015.61 1015.76 1015.89 1016.00 1016.10 1016.21 1016.33 1016.45 1016.57 1016.68 1016.76 1016.80 1016.81 1016.80 1016.79 1016.80 1016.83 1016.92 1017.06 1017.25 1017.47 1017.70 1017.92
1013.38 1013.59 1013.72 1013.76 1013.74 1013.70 1013.66 1013.66 1013.72 1013.85 1014.04 1014.27 1014.53 1014.79 1015.02 1015.21 1015.37 1015.48 1015.58 1015.66 1015.74 1015.83 1015.92 1016.02 1016.11 1016.18 1016.23 1016.27 1016.29 1016.32 1016.36 1016.43 1016.54 1016.70 1016.90 1017.13 1017.36 1017.59
1013.03 1013.23 1013.36 1013.41 1013.41 1013.37 1013.34 1013.33 1013.37 1013.48 1013.65 1013.87 1014.12 1014.36 1014.60 1014.80 1014.96 1015.08 1015.18 1015.25 1015.31 1015.38 1015.45 1015.52 1015.59 1015.65 1015.71 1015.76 1015.82 1015.88 1015.96 1016.06 1016.21 1016.39 1016.60 1016.84 1017.08 1017.30
1012.69 1012.87 1013.00 1013.06 1013.06 1013.04 1013.01 1013.00 1013.05 1013.14 1013.30 1013.50 1013.73 1013.98 1014.21 1014.42 1014.60 1014.73 1014.84 1014.91 1014.98 1015.03 1015.07 1015.12 1015.17 1015.22 1015.27 1015.33 1015.40 1015.48 1015.59 1015.73 1015.91 1016.11 1016.35 1016.59 1016.83 1017.05
1012.42 1012.57 1012.67 1012.73 1012.75 1012.75 1012.74 1012.75 1012.79 1012.89 1013.03 1013.22 1013.45 1013.69 1013.92 1014.14 1014.33 1014.49 1014.61 1014.70 1014.76 1014.80 1014.83 1014.85 1014.88 1014.90 1014.93 1014.97 1015.04 1015.13 1015.26 1015.42 1015.61 1015.84 1016.08 1016.33 1016.57 1016.80
1012.23 1012.34 1012.42 1012.49 1012.53 1012.55 1012.57 1012.60 1012.66 1012.77 1012.91 1013.09 1013.30 1013.54 1013.77 1014.00 1014.20 1014.37 1014.50 1014.60 1014.67 1014.71 1014.72 1014.72 1014.71 1014.70 1014.70 1014.71 1014.75 1014.83 1014.94 1015.10 1015.30 1015.53 1015.77 1016.02 1016.27 1016.49
1012.14 1012.21 1012.28 1012.35 1012.42 1012.47 1012.53 1012.60 1012.69 1012.81 1012.95 1013.13 1013.33 1013.55 1013.77 1013.99 1014.20 1014.37 1014.52 1014.63 1014.70 1014.73 1014.73 1014.70 1014.66 1014.61 1014.56 1014.53 1014.53 1014.57 1014.65 1014.78 1014.95 1015.16 1015.40 1015.64 1015.87 1016.09
1012.15 1012.19 1012.25 1012.34 1012.43 1012.54 1012.64 1012.75 1012.88 1013.01 1013.16 1013.33 1013.51 1013.71 1013.91 1014.11 1014.30 1014.47 1014.62 1014.72 1014.79 1014.81 1014.80 1014.75 1014.68 1014.59 1014.49 1014.41 1014.36 1014.35 1014.38 1014.46 1014.59 1014.76 1014.96 1015.17 1015.37 1015.57
1012.25 1012.27 1012.34 1012.45 1012.58 1012.73 1012.89 1013.04 1013.20 1013.35 1013.51 1013.66 1013.82 1013.99 1014.15 1014.32 1014.48 1014.62 1014.75 1014.84 1014.90 1014.92 1014.89 1014.83 1014.73 1014.61 1014.47 1014.35 1014.24 1014.17 1014.14 1014.16 1014.23 1014.34 1014.48 1014.63 1014.80 1014.95
1012.45 1012.47 1012.55 1012.68 1012.85 1013.05 1013.24 1013.44 1013.62 1013.79 1013.94 1014.08 1014.21 1014.33 1014.45 1014.56 1014.68 1014.78 1014.87 1014.94 1014.99 1014.99 1014.96 1014.88 1014.77 1014.63 1014.47 1014.31 1014.17 1014.04 1013.96 1013.91 1013.91 1013.94 1014.01 1014.09 1014.19 1014.29
1012.78 1012.80 1012.90 1013.05 1013.25 1013.47 1013.70 1013.91 1014.11 1014.28 1014.41 1014.52 1014.61 1014.68 1014.74 1014.80 1014.85 1014.91 1014.96 1015.00 1015.02 1015.01 1014.97 1014.89 1014.78 1014.63 1014.47 1014.29 1014.11 1013.95 1013.82 1013.72 1013.65 1013.61 1013.59 1013.60 1013.62 1013.64
1013.25 1013.28 1013.39 1013.55 1013.76 1013.99 1014.22 1014.44 1014.63 1014.78 1014.89 1014.96 1015.00 1015.02 1015.02 1015.01 1015.00 1015.00 1015.00 1014.99 1014.98 1014.96 1014.91 1014.83 1014.72 1014.59 1014.43 1014.25 1014.07 1013.89 1013.72 1013.58 1013.45 1013.35 1013.26 1013.19 1013.13 1013.07
1013.89 1013.92 1014.03 1014.18 1014.37 1014.58 1014.80 1014.99 1015.15 1015.27 1015.35 1015.38 1015.36 1015.32 1015.26 1015.19 1015.12 1015.06 1015.01 1014.96 1014.92 1014.87 1014.81 1014.73 1014.62 1014.50 1014.35 1014.18 1014.00 1013.82 1013.65 1013.48 1013.32 1013.17 1013.03 1012.89 1012.76 1012.63
1014.67 1014.71 1014.80 1014.92 1015.08 1015.25 1015.41 1015.56 1015.67 1015.74 1015.77 1015.75 1015.69 1015.60 1015.49 1015.37 1015.25 1015.13 1015.03 1014.94 1014.85 1014.77 1014.69 1014.60 1014.49 1014.37 1014.23 1014.08 1013.91 1013.74 1013.57 1013.40 1013.22 1013.05 1012.88 1012.70 1012.52 1012.34
1015.58 1015.61 1015.66 1015.74 1015.84 1015.94 1016.03 1016.11 1016.16 1016.18 1016.15 1016.09 1015.99 1015.86 1015.71 1015.55 1015.39 1015.24 1015.09 1014.96 1014.83 1014.72 1014.60 1014.49 1014.36 1014.23 1014.09 1013.95 1013.79 1013.64 1013.48 1013.32 1013.15 1012.98 1012.81 1012.62 1012.42 1012.21
1016.53 1016.54 1016.56 1016.58 1016.60 1016.62 1016.63 1016.63 1016.61 1016.56 1016.49 1016.39 1016.26 1016.11 1015.94 1015.76 1015.58 1015.40 1015.23 1015.06 1014.89 1014.74 1014.58 1014.43 1014.28 1014.13 1013.97 1013.82 1013.67 1013.53 1013.39 1013.24 1013.10 1012.95 1012.80 1012.63 1012.44 1012.24
Thickness
5673 5672 5670 5669 5669 5669 5668 5667 5662 5659 5662 5670 5675 5679 5680 5680 5680 5680 5680 5681 5681 5682 5684 5685 5687 5689 5691 5692 5694 5695 5697 5699 5702 5705 5708 5711 5713 5715
5669 5668 5667 5666 5666 5666 5666 5666 5665 5663 5662 5669 5673 5677 5678 5679 5679 5679 5679 5678 5679 5679 5680 5681 5683 5685 5687 5688 5690 5692 5694 5696 5699 5701 5703 5705 5707 5709
5666 5665 5664 5664 5663 5663 5663 5664 5664 5664 5663 5668 5671 5674 5675 5676 5677 5677 5677 5677 5677 5677 5677 5678 5680 5681 5683 5684 5687 5689 5691 5693 5695 5697 5699 5700 5702 5704
5662 5661 5661 5662 5661 5662 5662 5663 5663 5664 5663 5664 5667 5670 5672 5673 5674 5674 5674 5675 5675 5675 5676 5676 5677 5678 5679 5681 5683 5685 5687 5690 5692 5693 5695 5696 5697 5698
5658 5658 5658 5659 5659 5660 5661 5662 5663 5664 5663 5663 5664 5666 5668 5669 5669 5670 5671 5672 5673 5674 5674 5674 5675 5675 5677 5678 5680 5682 5684 5686 5687 5689 5690 5691 5691 5692
5655 5655 5656 5656 5656 5657 5659 5660 5661 5662 5662 5662 5662 5662 5663 5664 5665 5666 5666 5668 5670 5672 5672 5673 5673 5674 5675 5677 5677 5678 5680 5681 5682 5683 5684 5685 5686 5686
5652 5652 5652 5653 5654 5655 5656 5656 5658 5659 5659 5660 5660 5659 5660 5660 5662 5663 5663 5664 5666 5668 5668 5670 5671 5672 5673 5674 5675 5675 5676 5677 5677 5678 5679 5679 5679 5680
5648 5648 5648 5649 5650 5652 5653 5654 5655 5654 5655 5656 5657 5657 5658 5659 5659 5658 5659 5659 5660 5664 5663 5666 5667 5669 5670 5672 5674 5673 5673 5673 5673 5673 5673 5673 5673 5673
5644 5644 5644 5646 5646 5646 5647 5649 5651 5652 5653 5652 5652 5654 5654 5655 5654 5654 5654 5655 5656 5659 5658 5661 5663 5665 5668 5670 5671 5671 5670 5670 5669 5668 5668 5667 5667 5667
5640 5640 5639 5640 5641 5641 5642 5643 5644 5646 5647 5648 5648 5648 5649 5650 5650 5650 5650 5651 5652 5652 5652 5654 5658 5660 5665 5667 5668 5668 5668 5667 5665 5664 5663 5662 5661 5660
5635 5635 5635 5636 5638 5638 5637 5637 5638 5640 5642 5643 5643 5643 5643 5643 5643 5643 5643 5643 5644 5645 5646 5648 5652 5653 5658 5662 5664 5664 5663 5662 5661 5660 5658 5657 5655 5653
5630 5630 5631 5632 5634 5635 5633 5633 5633 5635 5636 5637 5637 5638 5638 5638 5638 5638 5637 5637 5637 5638 5640 5640 5643 5644 5649 5653 5654 5656 5656 5655 5654 5653 5652 5651 5648 5645
5624 5625 5626 5628 5630 5632 5631 5630 5631 5631 5631 5631 5631 5631 5631 5632 5632 5632 5633 5632 5632 5633 5634 5633 5634 5634 5637 5642 5643 5645 5646 5647 5646 5646 5644 5643 5641 5639
5617 5618 5620 5623 5626 5628 5629 5629 5628 5627 5625 5625 5624 5624 5624 5624 5625 5625 5625 5626 5626 5627 5627 5627 5626 5626 5627 5629 5632 5633 5634 5635 5636 5636 5635 5634 5633 5631
5608 5610 5613 5616 5619 5621 5623 5624 5623 5621 5619 5618 5617 5616 5616 5616 5617 5617 5617 5617 5618 5618 5619 5619 5619 5618 5618 5619 5621 5621 5622 5624 5624 5624 5623 5623 5623 5622
5597 5600 5604 5606 5609 5611 5613 5614 5614 5614 5613 5612 5610 5609 5609 5609 5609 5608 5608 5608 5608 5609 5609 5609 5610 5610 5610 5610 5610 5611 5610 5612 5612 5612 5612 5611 5611 5611
5588 5590 5593 5596 5599 5601 5603 5604 5605 5606 5605 5604 5603 5603 5602 5602 5602 5601 5601 5600 5599 5599 5599 5600 5600 5600 5601 5601 5602 5602 5602 5601 5602 5601 5600 5600 5602 5601
5581 5582 5585 5588 5590 5593 5595 5596 5597 5597 5598 5598 5597 5596 5596 5595 5595 5595 5594 5593 5593 5592 5591 5591 5591 5592 5593 5594 5593 5594 5593 5593 5592 5591 5590 5591 5594 5594
5577 5577 5579 5582 5584 5586 5588 5590 5590 5591 5592 5592 5591 5591 5590 5589 5589 5588 5587 5586 5584 5583 5582 5581 5580 5581 5581 5581 5584 5582 5582 5582 5581 5581 5580 5580 5583 5585
5574 5575 5576 5578 5580 5582 5583 5585 5586 5586 5586 5586 5585 5584 5583 5583 5582 5580 5578 5576 5575 5573 5572 5570 5569 5568 5569 5570 5570 5571 5569 5569 5570 5571 5572 5571 5572 5574
5572 5572 5573 5575 5577 5578 5580 5581 5581 5581 5581 5581 5580 5579 5577 5576 5575 5573 5571 5569 5567 5565 5563 5562 5560 5559 5557 5556 5557 5559 5558 5557 5556 5557 5558 5559 5561 5562
5572 5573 5573 5574 5576 5577 5578 5578 5578 5578 5577 5576 5575 5574 5572 5571 5569 5567 5564 5562 5559 5557 5555 5553 5551 5548 5546 5546 5546 5546 5546 5545 5544 5543 5543 5543 5544 5548
5575 5575 5575 5575 5576 5576 5577 5577 5576 5575 5574 5572 5571 5570 5568 5566 5563 5560 5557 5554 5552 5549 5546 5544 5541 5539 5536 5534 5533 5532 5532 5532 5532 5531 5529 5527 5527 5527